This is the latest recevied weather packets stored in our database for station/object KN6DHD. If no packets are shown the sender has not sent any weather packets the latest 10 day(s).
| Time | Temp. | Humidity | Pressure | Rain* | Wind** | Luminosity | Snow |
|---|---|---|---|---|---|---|---|
| 1777406473 | 21.67° C | 53% | 1019.8 hPa | 0 mm | - | 631 W/m² | - |
| 1777406168 | 21.67° C | 54% | 1020.1 hPa | 0 mm | - | 684 W/m² | - |
| 1777405864 | 21.67° C | 53% | 1020.1 hPa | 0 mm | - | 664 W/m² | - |
| 1777405560 | 21.11° C | 55% | 1020.2 hPa | 0 mm | - | 631 W/m² | - |
| 1777405257 | 22.22° C | 55% | 1020 hPa | 0 mm | - | 649 W/m² | - |
| 1777404955 | 21.67° C | 56% | 1020.1 hPa | 0 mm | - | 678 W/m² | - |
| 1777404646 | 20.56° C | 57% | 1020 hPa | 0 mm | - | 677 W/m² | - |
| 1777404343 | 20.56° C | 58% | 1020.6 hPa | 0 mm | - | 704 W/m² | - |
| 1777404038 | 21.11° C | 58% | 1020.3 hPa | 0 mm | - | 675 W/m² | - |
| 1777403729 | 21.11° C | 56% | 1020.3 hPa | 0 mm | - | 647 W/m² | - |
| 1777403427 | 20° C | 57% | 1020.5 hPa | 0 mm | - | 620 W/m² | - |
| 1777403122 | 20.56° C | 56% | 1020.6 hPa | 0 mm | - | 170 W/m² | - |
| 1777402818 | 20° C | 58% | 1020.8 hPa | 0 mm | - | 511 W/m² | - |
| 1777402515 | 20° C | 59% | 1020.8 hPa | 0 mm | - | 597 W/m² | - |
| 1777402211 | 19.44° C | 62% | 1020.7 hPa | 0 mm | - | 618 W/m² | - |
| 1777401906 | 18.89° C | 65% | 1020.8 hPa | 0 mm | - | 612 W/m² | - |
| 1777401605 | 18.89° C | 66% | 1020.9 hPa | 0 mm | - | 152 W/m² | - |
| 1777401302 | 18.89° C | 64% | 1021 hPa | 0 mm | - | 68 W/m² | - |
| 1777400996 | 18.89° C | 67% | 1021 hPa | 0 mm | - | 66 W/m² | - |
| 1777400694 | 18.33° C | 67% | 1021 hPa | 0 mm | - | 67 W/m² | - |
| 1777400391 | 18.33° C | 67% | 1020.9 hPa | 0 mm | - | 63 W/m² | - |
| 1777400086 | 18.33° C | 67% | 1021.1 hPa | 0 mm | - | 62 W/m² | - |
| 1777399784 | 18.33° C | 67% | 1021 hPa | 0 mm | - | 62 W/m² | - |
| 1777399481 | 17.78° C | 69% | 1021 hPa | 0 mm | - | 70 W/m² | - |
| 1777399178 | 17.22° C | 70% | 1021 hPa | 0 mm | - | 72 W/m² | - |
* Rain latest hour (hover to see other rain measurements)
** Current wind speed in m/s (hover to see current wind gust speed)